Meteo Giornale » Osservazioni meteo Stati Uniti (USA) » Detroit Lakes
ore: 00:41 - Osservazioni Meteo Detroit Lakes
Lat. 46° 50' N Lon. 95° 53' W Alt. 426 metri s.l.m.
20 °C
Sereno
Temp. 24 Ore
18 °C
28 °C
Sud-Ovest
13 Km/h
Dew point 12 °C
Umidità 59 %
Visibilità 10 Km
Il sole sorge alle ore 06:43
Il sole tramonta alle ore 20:03
| Data e Ora | Cielo e Fenomeni | T °C | DP °C | Um. % | Pres. hPa | Vis. km | Vento km/h | |
|---|---|---|---|---|---|---|---|---|
| Oggi h: 00:41 | Sereno | 20 | 12 | 59 | 1012 | 10 | SO 13 | |
| Oggi h: 00:24 | Sereno | 20 | 12 | 59 | 1012 | 10 | SO 11.1 | |
| Oggi h: 00:01 | Sereno | 21 | 11 | 52 | 1012 | 10 | SO 14.8 | |
| Ieri h: 23:41 | Sereno | 20 | 11 | 56 | 1012 | 10 | SO 9.3 | |
| Ieri h: 23:21 | Sereno | 20 | 12 | 59 | 1012 | 10 | S/SO 11.1 | |
| Ieri h: 23:01 | Sereno | 20 | 13 | 64 | 1012 | 10 | SO 7.4 | |
| Ieri h: 22:41 | Sereno | 20 | 12 | 59 | 1011 | 10 | SO 7.4 | |
| Ieri h: 22:21 | Sereno | 21 | 12 | 56 | 1011 | 10 | SO 7.4 | |
| Ieri h: 22:01 | Sereno | 21 | 11 | 52 | 1011 | 10 | SO 7.4 | |
| Ieri h: 21:41 | Sereno | 21 | 11 | 52 | 1011 | 10 | SO 7.4 | |
| Ieri h: 21:21 | Sereno | 22 | 11 | 49 | 1011 | 10 | S/SO 7.4 | |
| Ieri h: 21:01 | Sereno | 22 | 12 | 53 | 1011 | 10 | N 5.5 | |
| Ieri h: 20:41 | Sereno | 23 | 11 | 46 | 1011 | 10 | S/SO 7.4 | |
| Ieri h: 20:05 | Sereno | 24 | 11 | 43 | 1010 | 10 | SO 11.1 | |
| Ieri h: 19:43 | Sereno | 26 | 10 | 36 | 1010 | 10 | SO 13 | |
| Ieri h: 19:23 | Sereno | 26 | 10 | 36 | 1010 | 10 | SO 13 | |
| Ieri h: 19:06 | Sereno | 27 | 10 | 34 | 1010 | 10 | SO 14.8 | |
| Ieri h: 18:48 | Sereno | 27 | 10 | 34 | 0 | 10 | SO 13 | |
| Ieri h: 18:23 | Sereno | 28 | 9 | 30 | 1010 | 10 | SO 16.7 | |
| Ieri h: 18:03 | Sereno | 28 | 10 | 32 | 1010 | 10 | SO 16.7 | |
| Ieri h: 17:43 | Sereno | 28 | 9 | 30 | 1010 | 10 | SO 22.2 | |
| Ieri h: 17:23 | Sereno | 28 | 11 | 34 | 1010 | 10 | S/SO 16.7 | |
| Ieri h: 17:03 | Sereno | 28 | 12 | 37 | 1010 | 10 | S/SO 18.5 | |
| Ieri h: 16:43 | Sereno | 28 | 12 | 37 | 1010 | 10 | S/SO 16.7 | |
| Ieri h: 16:24 | Sereno | 28 | 11 | 34 | 1010 | 10 | SO 20.3 | |
| Ieri h: 16:06 | Sereno | 28 | 13 | 39 | 1011 | 10 | O/SO 13 | |
| Ieri h: 15:45 | Sereno | 27 | 13 | 42 | 1011 | 10 | O/SO 14.8 | |
| Ieri h: 15:23 | Sereno | 26 | 13 | 44 | 1011 | 10 | SO 14.8 | |
| Ieri h: 15:03 | Sereno | 26 | 12 | 41 | 1011 | 10 | O 13 | |
| Ieri h: 14:43 | Sereno | 26 | 12 | 41 | 1011 | 10 | O 13 | |
| Ieri h: 14:25 | Sereno | 26 | 13 | 44 | 1011 | 10 | N 9.3 | |
| Ieri h: 14:05 | Sereno | 25 | 13 | 47 | 1011 | 10 | SO 13 | |
| Ieri h: 13:45 | Sereno | 25 | 13 | 47 | 1011 | 10 | O 14.8 | |
| Ieri h: 13:27 | Sereno | 25 | 13 | 47 | 1011 | 10 | O/NO 13 | |
| Ieri h: 13:07 | Sereno | 24 | 14 | 53 | 1011 | 10 | O 13 | |
| Ieri h: 12:44 | Sereno | 24 | 14 | 53 | 1011 | 10 | O/NO 11.1 | |
| Ieri h: 12:25 | Sereno | 24 | 14 | 53 | 1011 | 10 | NO 11.1 | |
| Ieri h: 12:03 | Sereno | 23 | 15 | 60 | 1011 | 10 | O/NO 7.4 | |
| Ieri h: 11:44 | Sereno | 23 | 15 | 60 | 1012 | 10 | N 7.4 | |
| Ieri h: 11:05 | Sereno | 22 | 18 | 78 | 1012 | 10 | O 13 | |
| Ieri h: 10:44 | Sereno | 22 | 18 | 78 | 1012 | 10 | O 11.1 | |
| Ieri h: 10:23 | Sereno | 21 | 19 | 88 | 1011 | 10 | O/NO 7.4 | |
| Ieri h: 10:05 | Sereno | 20 | 19 | 93 | 1011 | 10 | O/NO 9.3 | |
| Ieri h: 09:43 | Poco Nuvoloso | 20 | 19 | 93 | 1011 | 10 | O/NO 11.1 | |
| Ieri h: 09:05 | Poco Nuvoloso | 19 | 19 | 100 | 1011 | 10 | N 5.5 | |
| Ieri h: 08:43 | Poco Nuvoloso | 18 | 18 | 100 | 1010 | 10 | O/NO 11.1 | |
| Ieri h: 08:23 | Nuvoloso | 18 | 18 | 100 | 1010 | 10 | N/NO 9.3 | |
| Ieri h: 08:05 | Molto Nuvoloso | 18 | 18 | 100 | 1010 | 10 | N 5.5 | |
| Ieri h: 07:44 | Coperto | 18 | 18 | 100 | 1010 | 10 | O/NO 13 | |
| Ieri h: 07:22 | Coperto | 18 | 18 | 100 | 1009 | 10 | NO 14.8 | |
| Ieri h: 06:43 | Molto Nuvoloso | 18 | 18 | 100 | 1008 | 10 | NO 14.8 | |
| Ieri h: 06:23 | Molto Nuvoloso | 18 | 18 | 100 | 1008 | 10 | O/NO 13 | |
| Ieri h: 06:02 | Coperto | 19 | 19 | 100 | 0 | 10 | O/NO 22.2 | |
| Ieri h: 05:35 | Coperto | 19 | 19 | 100 | 1008 | 10 | O/NO 16.7 | |
| Ieri h: 05:15 | Coperto | 20 | 20 | 100 | 1007 | 10 | O/NO 20.3 | |
| Ieri h: 04:55 | Coperto | 21 | 21 | 100 | 1007 | 10 | O 13 | |
| Ieri h: 04:35 | Coperto | 21 | 21 | 100 | 1007 | 10 | N 5.5 | |
| Ieri h: 04:15 | Molto Nuvoloso | 21 | 21 | 100 | 1006 | 10 | S/SO 7.4 | |
| Ieri h: 03:55 | Poco Nuvoloso | 20 | 20 | 100 | 1006 | 13 | N 5.5 | |
| Ieri h: 03:35 | Nuvoloso | 20 | 20 | 100 | 1006 | 14 | N 5.5 | |
| Ieri h: 03:15 | Nuvoloso | 21 | 21 | 100 | 1006 | 10 | S/SO 7.4 | |
| Ieri h: 02:55 | Poco Nuvoloso | 21 | 21 | 100 | 1006 | 10 | S 9.3 | |
| Ieri h: 02:35 | Sereno | 21 | 21 | 100 | 1006 | 10 | S 7.4 | |
| Ieri h: 02:15 | Temporale | 21 | 21 | 100 | 1006 | 14 | S 13 | |
| Ieri h: 01:55 | Temporale nelle vicinanze | 21 | 21 | 100 | 1007 | 10 | O 9.3 | |
| Ieri h: 01:35 | Coperto | 21 | 21 | 100 | 1006 | 10 | SE 11.1 | |
| Ieri h: 01:15 | Coperto | 22 | 22 | 100 | 1006 | 10 | SE 18.5 | |
| Ieri h: 00:55 | Coperto | 22 | 22 | 100 | 1006 | 10 | SE 14.8 | |
| Ieri h: 00:35 | Coperto | 22 | 22 | 100 | 1006 | 10 | SE 18.5 | |



